Regional Weather Roundup
Issued by NWS Nashville, TN

Home | Current Version | Previous Version | Text Only | Print | Product List | Glossary On
Versions: 1 2 3 4 5 6 7 8 9 10 11 12 13 14 15 16 17 18 19 20 21 22 23 24 25 26 27 28 29 30 31 32 33 34 35 36 37 38 39 40 41 42 43 44 45 46 47 48 49 50
000
ASUS44 KOHX 291915
RWROHX
MIDDLE TENNESSEE HOURLY WEATHER ROUNDUP
NATIONAL WEATHER SERVICE NASHVILLE TN
200 PM CDT TUE JUL 29 2014

NOTE: "FAIR" INDICATES FEW OR NO CLOUDS BELOW 12,000 FEET WITH
NO SIGNIFICANT WEATHER AND/OR OBSTRUCTIONS TO VISIBILITY.

* THESE REPORTS ARE NOT UNDER NWS QUALITY CONTROL AND MAY NOT
  REPORT WEATHER SUCH AS PRECIPITATION AND FOG.


TNZ005>011-023>034-057-059-062>066-078-080-292000
...NORTHERN MIDDLE TENNESSEE...

CITY           SKY/WX    TMP DP  RH WIND       PRES   REMARKS
CLARKSVILLE    MOSUNNY   79  48  33 N13       30.10F
CROSSVILLE     SUNNY     72  47  40 N8        30.11S
DICKSON        MOSUNNY   75  50  41 NE9       30.11F
LEBANON        MOSUNNY   75  53  46 VRB7      30.09S
NASHVILLE      MOSUNNY   78  51  38 N12G22    30.10F
WEST NASHVILLE   N/A     77  48  36 VRB6      30.10F
PORTLAND       MOSUNNY   73  54  49 N6        30.09F
SMYRNA         MOSUNNY   79  55  43 NW8       30.10F
SPARTA         MOSUNNY   73  55  53 N8        30.09S
$$
TNZ056-058-060-061-075>077-079-093>097-292000
...SOUTHERN MIDDLE TENNESSEE...

CITY           SKY/WX    TMP DP  RH WIND       PRES   REMARKS
COLUMBIA       MOSUNNY   77  54  44 N6        30.10S
FAYETTEVILLE   SUNNY     73  48  40 NE17G26   30.10S
LEWISBURG      MOSUNNY   73  52  47 NE13      30.10S
MCMINNVILLE    SUNNY     72  55  56 N12       30.10S
MURFREESBORO   PTSUNNY   74  52  46 N6        30.09F
SHELBYVILLE    PTSUNNY   73  55  53 N8        30.11S
TULLAHOMA        N/A     73  52  46 N10       30.10F
WINCHESTER     SUNNY     73  50  43 N10       30.09S
$$


...KEY TO REMARKS...
VSB - VISIBILITY IN MILES
WCI - WIND CHILL INDEX
HX  - HEAT INDEX



USA.gov is the U.S. government's official web portal to all federal, state and local government web resources and services.